• Processing (Info)

  • MPEC 2014-F40 : 2012 VP113

    The following Minor Planet Electronic Circular may be linked-to from your own Web pages, but must not otherwise be redistributed electronically.

    A form allowing access to any MPEC is at the bottom of this page.


    Read MPEC 2014-F39 Read MPEC 2014-F41


    M.P.E.C. 2014-F40                                Issued 2014 Mar. 26, 13:30 UT
    
         The Minor Planet Electronic Circulars contain information on unusual
             minor planets and routine data on comets.  They are published
       on behalf of Commission 20 of the International Astronomical Union by the
              Minor Planet Center, Smithsonian Astrophysical Observatory,
                              Cambridge, MA 02138, U.S.A.
    
                 Prepared using the Tamkin Foundation Computer Network
    
                                  MPC@CFA.HARVARD.EDU
                URL http://www.minorplanetcenter.net/    ISSN 1523-6714
    
                                      2012 VP113
    
    Observations:
         K12VB3P*.C2012 11 05.19447 03 23 47.159+01 12 01.65         23.1 rc~10W7807
         K12VB3P .C2012 11 05.19585 03 23 47.154+01 12 01.54               c~10W7807
         K12VB3P .C2012 11 05.19722 03 23 47.085+01 12 01.11               cEF040807
         K12VB3P .C2012 11 05.19861 03 23 47.088+01 12 01.53               cEF040807
         K12VB3P .C2012 11 05.26339 03 23 46.978+01 12 00.61               cEF040807
         K12VB3P .C2012 11 05.26476 03 23 46.947+01 12 00.74               cEF040807
         K12VB3P .C2012 11 05.26755 03 23 46.950+01 12 00.72               cEF040807
         K12VB3P .C2012 11 05.34585 03 23 46.777+01 12 00.64               cEF040807
         K12VB3P .C2012 11 05.34721 03 23 46.797+01 11 59.81               cEF040807
         K12VB3P .C2012 11 05.34996 03 23 46.760+01 12 00.28               cEF040807
         K12VB3P  C2013 03 10.01482 03 21 38.344+01 25 39.33               cEF040304
         K12VB3P  C2013 03 10.03753 03 21 38.361+01 25 39.54               cEF040304
         K12VB3P  C2013 03 10.05447 03 21 38.382+01 25 40.22               cEF040304
         K12VB3P  C2013 03 11.01704 03 21 39.889+01 25 58.46               cEF040304
         K12VB3P  C2013 03 11.02837 03 21 39.911+01 25 58.47               cEF040304
         K12VB3P  C2013 03 11.05185 03 21 39.948+01 25 58.99               cEF040304
         K12VB3P  C2013 08 10.34128 03 27 34.587+01 48 43.12         23.3 rcEF040304
         K12VB3P  C2013 08 10.36004 03 27 34.579+01 48 42.93         23.3 rcEF040304
         K12VB3P  C2013 08 10.41789 03 27 34.612+01 48 42.58         23.2 rcEF040304
         K12VB3P  C2013 08 11.38266 03 27 35.213+01 48 34.79         23.2 rcEF040304
         K12VB3P  C2013 08 11.41952 03 27 35.230+01 48 34.28         23.3 rcEF040304
         K12VB3P  C2013 10 28.25273 03 26 11.698+01 33 29.90               cEF040304
         K12VB3P  C2013 10 29.24975 03 26 09.381+01 33 19.13               cEF040304
         K12VB3P  C2013 10 30.33180 03 26 06.819+01 33 08.55         23.1 rcEF040304
    
    Observer details:
    304 Las Campanas Observatory.  Observers S. S. Sheppard, C. Trujillo.
        6.5-m Magellan-Baade telescope + CCD.
    807 Cerro Tololo.  Observers S. S. Sheppard, C. Trujillo.  4.0-m CTIO
        reflector + CCD.
    
    Orbital elements:
    2012 VP113
    Epoch 2014 May 23.0 TT = JDT 2456800.5                  MPC
    M   3.06601              (2000.0)            P               Q
    n   0.00021494     Peri.  291.14923     +0.84619626     -0.34404613
    a 276.0078196      Node    90.89192     +0.49413218     +0.79246630
    e   0.7106887      Incl.   24.01461     -0.19946247     +0.50361634
    P  4590            H    4.1           G   0.15           U   6
    Residuals in seconds of arc
    121105 807  0.3+  0.2+    121105 807  0.5+  0.3-    130810 304  0.2+  0.0
    121105 807  0.3+  0.1+    121105 807  0.1+  0.2+    130810 304  0.1-  0.1-
    121105 807  0.7-  0.4-    130310 304  0.2+  0.1+    130810 304  0.1-  0.0
    121105 807  0.6-  0.1+    130310 304  0.0   0.1-    130811 304  0.2+  0.1+
    121105 807  0.1+  0.2-    130310 304  0.1-  0.2+    130811 304  0.2+  0.1-
    121105 807  0.3-  0.1-    130311 304  0.0   0.1+    131028 304  0.2-  0.1+
    121105 807  0.1-  0.1-    130311 304  0.0   0.1-    131029 304  0.0   0.3-
    121105 807  0.2+  0.5+    130311 304  0.0   0.1-    131030 304  0.2-  0.2+
    
    Ephemeris:
    2012 VP113               a,e,i = 276.01, 0.71, 24                q = 79.852
    Date    TT    R. A. (2000) Decl.     Delta      r     Elong.  Phase     V
    2014 02 24    03 23 24.2 +01 41 04  83.3295 83.0699    74.5     0.7    23.4
    ...
    2014 03 11    03 23 42.4 +01 45 38  83.5653 83.0765    60.2     0.6    23.4
    ...
    2014 03 19    03 23 56.1 +01 48 10  83.6784 83.0800    52.8     0.5    23.4
    ...
    2014 03 25    03 24 08.0 +01 50 05  83.7559 83.0827    47.3     0.5    23.4
    2014 03 26    03 24 10.1 +01 50 24  83.7682 83.0831    46.4     0.5    23.4
    2014 03 27    03 24 12.2 +01 50 43  83.7802 83.0836    45.5     0.5    23.4
    ...
    2014 04 02    03 24 25.7 +01 52 38  83.8480 83.0862    40.1     0.4    23.4
    ...
    2014 04 10    03 24 45.5 +01 55 07  83.9257 83.0897    33.2     0.4    23.4
    ...
    2014 04 25    03 25 26.6 +01 59 32  84.0289 83.0964    21.9     0.3    23.4
    
    Gareth V. Williams           (C) Copyright 2014 MPC           M.P.E.C. 2014-F40
    

    Read MPEC 2014-F39 Read MPEC 2014-F41


    MPEC number:

    Enter an MPEC number in one of the following forms:

    • 1997-B01 (the full form)
    • J97B01 (the packed version of the full form)
    • B01 (the abbreviated form)